Time,TemperatureF,DewpointF,PressureIn,WindDirection,WindDirectionDegrees,WindSpeedMPH,WindSpeedGustMPH,Humidity,HourlyPrecipIn,Conditions,Clouds,dailyrainin,SoftwareType,DateUTC
2013-04-27 00:09:00,37.1,34.0,30.43,South,179,0.0,2.0,87,0.00,,,0.00,weatherlink.com 1.10,2013-04-27 04:09:00,
2013-04-27 00:25:00,37.6,34.0,30.43,South,179,1.0,5.0,88,0.00,,,0.00,weatherlink.com 1.10,2013-04-27 04:25:00,
2013-04-27 00:40:00,38.1,35.0,30.44,South,179,4.0,6.0,89,0.00,,,0.00,weatherlink.com 1.10,2013-04-27 04:40:00,
2013-04-27 00:55:00,37.6,35.0,30.44,South,179,0.0,4.0,89,0.00,,,0.00,weatherlink.com 1.10,2013-04-27 04:55:00,
2013-04-27 01:10:00,35.2,32.0,30.44,South,179,0.0,5.0,89,0.00,,,0.00,weatherlink.com 1.10,2013-04-27 05:10:00,
2013-04-27 01:25:00,36.0,33.0,30.43,South,179,0.0,2.0,90,0.00,,,0.00,weatherlink.com 1.10,2013-04-27 05:25:00,
2013-04-27 01:40:00,34.8,33.0,30.43,South,179,2.0,4.0,91,0.00,,,0.00,weatherlink.com 1.10,2013-04-27 05:40:00,
2013-04-27 01:55:00,36.2,34.0,30.43,South,179,0.0,2.0,92,0.00,,,0.00,weatherlink.com 1.10,2013-04-27 05:55:00,
2013-04-27 02:10:00,36.1,33.0,30.43,South,179,2.0,4.0,87,0.00,,,0.00,weatherlink.com 1.10,2013-04-27 06:10:00,
2013-04-27 02:25:00,35.5,33.0,30.43,South,179,0.0,1.0,90,0.00,,,0.00,weatherlink.com 1.10,2013-04-27 06:25:00,
2013-04-27 02:40:00,37.1,35.0,30.42,South,179,0.0,2.0,92,0.00,,,0.00,weatherlink.com 1.10,2013-04-27 06:40:00,
2013-04-27 02:55:00,34.9,31.0,30.42,South,179,2.0,4.0,87,0.00,,,0.00,weatherlink.com 1.10,2013-04-27 06:55:00,
2013-04-27 03:10:00,34.2,32.0,30.42,South,179,0.0,4.0,93,0.00,,,0.00,weatherlink.com 1.10,2013-04-27 07:10:00,
2013-04-27 03:25:00,34.5,33.0,30.42,NNW,344,0.0,0.0,92,0.00,,,0.00,weatherlink.com 1.10,2013-04-27 07:25:00,
2013-04-27 03:40:00,34.8,33.0,30.42,NNE,32,2.0,3.0,93,0.00,,,0.00,weatherlink.com 1.10,2013-04-27 07:40:00,
2013-04-27 03:55:00,35.2,33.0,30.42,ENE,70,0.0,2.0,93,0.00,,,0.00,weatherlink.com 1.10,2013-04-27 07:55:00,
2013-04-27 04:10:00,35.6,33.0,30.42,ESE,102,0.0,0.0,91,0.00,,,0.00,weatherlink.com 1.10,2013-04-27 08:10:00,
2013-04-27 04:25:00,35.6,33.0,30.42,SSE,168,0.0,6.0,89,0.00,,,0.00,weatherlink.com 1.10,2013-04-27 08:25:00,
2013-04-27 04:40:00,34.8,32.0,30.42,South,176,0.0,0.0,88,0.00,,,0.00,weatherlink.com 1.10,2013-04-27 08:40:00,
2013-04-27 04:55:00,34.9,32.0,30.42,South,176,0.0,0.0,89,0.00,,,0.00,weatherlink.com 1.10,2013-04-27 08:55:00,
2013-04-27 05:10:00,34.4,32.0,30.42,SE,128,0.0,0.0,90,0.00,,,0.00,weatherlink.com 1.10,2013-04-27 09:10:00,
2013-04-27 05:25:00,34.3,32.0,30.42,SE,128,0.0,0.0,90,0.00,,,0.00,weatherlink.com 1.10,2013-04-27 09:25:00,
2013-04-27 05:40:00,34.1,32.0,30.42,ENE,61,0.0,0.0,92,0.00,,,0.00,weatherlink.com 1.10,2013-04-27 09:40:00,
2013-04-27 05:55:00,33.7,32.0,30.42,ENE,60,0.0,0.0,92,0.00,,,0.00,weatherlink.com 1.10,2013-04-27 09:55:00,
2013-04-27 06:10:00,33.5,32.0,30.43,NE,48,0.0,0.0,92,0.00,,,0.00,weatherlink.com 1.10,2013-04-27 10:10:00,
2013-04-27 06:25:00,33.5,32.0,30.43,NE,49,0.0,0.0,93,0.00,,,0.00,weatherlink.com 1.10,2013-04-27 10:25:00,
2013-04-27 06:40:00,34.2,32.0,30.43,NE,34,0.0,0.0,93,0.00,,,0.00,weatherlink.com 1.10,2013-04-27 10:40:00,
2013-04-27 06:55:00,34.7,33.0,30.43,NE,35,0.0,0.0,93,0.00,,,0.00,weatherlink.com 1.10,2013-04-27 10:55:00,
2013-04-27 07:10:00,35.6,34.0,30.43,NNE,31,0.0,0.0,94,0.00,,,0.00,weatherlink.com 1.10,2013-04-27 11:10:00,
2013-04-27 07:25:00,36.9,35.0,30.44,NE,42,0.0,0.0,93,0.00,,,0.00,weatherlink.com 1.10,2013-04-27 11:25:00,
2013-04-27 07:55:00,42.7,40.0,30.44,ENE,63,1.0,2.0,91,0.00,,,0.00,weatherlink.com 1.10,2013-04-27 11:55:00,
2013-04-27 08:10:00,44.7,39.0,30.44,ESE,118,2.0,5.0,81,0.00,,,0.00,weatherlink.com 1.10,2013-04-27 12:10:00,
2013-04-27 08:25:00,45.2,39.0,30.44,ESE,121,0.0,8.0,80,0.00,,,0.00,weatherlink.com 1.10,2013-04-27 12:25:00,
2013-04-27 08:40:00,45.7,37.0,30.44,NE,46,1.0,6.0,73,0.00,,,0.00,weatherlink.com 1.10,2013-04-27 12:40:00,
2013-04-27 08:55:00,46.1,37.0,30.44,ESE,122,1.0,6.0,71,0.00,,,0.00,weatherlink.com 1.10,2013-04-27 12:55:00,
2013-04-27 09:10:00,46.5,36.0,30.44,SE,140,5.0,7.0,66,0.00,,,0.00,weatherlink.com 1.10,2013-04-27 13:10:00,
2013-04-27 09:25:00,46.5,36.0,30.44,ENE,68,2.0,9.0,66,0.00,,,0.00,weatherlink.com 1.10,2013-04-27 13:25:00,
2013-04-27 09:40:00,47.1,36.0,30.44,SE,136,2.0,8.0,66,0.00,,,0.00,weatherlink.com 1.10,2013-04-27 13:40:00,
2013-04-27 09:56:00,47.2,36.0,30.44,SE,132,4.0,7.0,66,0.00,,,0.00,weatherlink.com 1.10,2013-04-27 13:56:00,
2013-04-27 10:11:00,47.4,36.0,30.44,SE,142,0.0,8.0,66,0.00,,,0.00,weatherlink.com 1.10,2013-04-27 14:11:00,
2013-04-27 10:26:00,48.4,36.0,30.44,South,182,3.0,8.0,62,0.00,,,0.00,weatherlink.com 1.10,2013-04-27 14:26:00,
2013-04-27 10:41:00,49.2,36.0,30.45,WNW,284,1.0,6.0,60,0.00,,,0.00,weatherlink.com 1.10,2013-04-27 14:41:00,
2013-04-27 10:56:00,49.1,35.0,30.45,NW,323,2.0,5.0,58,0.00,,,0.00,weatherlink.com 1.10,2013-04-27 14:56:00,
2013-04-27 11:11:00,49.1,33.0,30.45,NE,37,1.0,5.0,55,0.00,,,0.00,weatherlink.com 1.10,2013-04-27 15:11:00,
2013-04-27 11:26:00,50.5,34.0,30.44,South,171,1.0,6.0,54,0.00,,,0.00,weatherlink.com 1.10,2013-04-27 15:26:00,
2013-04-27 11:41:00,51.1,35.0,30.44,SSE,163,4.0,7.0,55,0.00,,,0.00,weatherlink.com 1.10,2013-04-27 15:41:00,
2013-04-27 11:56:00,51.3,36.0,30.44,SSE,159,2.0,8.0,57,0.00,,,0.00,weatherlink.com 1.10,2013-04-27 15:56:00,
2013-04-27 12:11:00,51.0,36.0,30.43,West,272,1.0,9.0,57,0.00,,,0.00,weatherlink.com 1.10,2013-04-27 16:11:00,
2013-04-27 12:26:00,51.3,35.0,30.43,ESE,103,3.0,7.0,54,0.00,,,0.00,weatherlink.com 1.10,2013-04-27 16:26:00,
2013-04-27 12:41:00,51.1,33.0,30.42,NW,304,4.0,10.0,51,0.00,,,0.00,weatherlink.com 1.10,2013-04-27 16:41:00,
2013-04-27 12:56:00,51.8,34.0,30.42,NNW,329,0.0,7.0,50,0.00,,,0.00,weatherlink.com 1.10,2013-04-27 16:56:00,
2013-04-27 13:11:00,52.4,32.0,30.41,WSW,250,3.0,8.0,47,0.00,,,0.00,weatherlink.com 1.10,2013-04-27 17:11:00,
2013-04-27 13:26:00,52.7,32.0,30.41,West,272,2.0,8.0,46,0.00,,,0.00,weatherlink.com 1.10,2013-04-27 17:26:00,
2013-04-27 13:41:00,53.0,30.0,30.40,South,186,4.0,9.0,42,0.00,,,0.00,weatherlink.com 1.10,2013-04-27 17:41:00,
2013-04-27 13:56:00,52.6,33.0,30.40,SE,134,6.0,9.0,47,0.00,,,0.00,weatherlink.com 1.10,2013-04-27 17:56:00,
2013-04-27 14:11:00,52.4,33.0,30.39,SE,137,3.0,9.0,48,0.00,,,0.00,weatherlink.com 1.10,2013-04-27 18:11:00,
2013-04-27 14:26:00,53.1,34.0,30.39,WSW,237,3.0,6.0,48,0.00,,,0.00,weatherlink.com 1.10,2013-04-27 18:26:00,
2013-04-27 14:41:00,53.1,35.0,30.39,SW,220,0.0,7.0,51,0.00,,,0.00,weatherlink.com 1.10,2013-04-27 18:41:00,
2013-04-27 14:56:00,52.8,34.0,30.38,South,173,2.0,7.0,49,0.00,,,0.00,weatherlink.com 1.10,2013-04-27 18:56:00,
2013-04-27 15:11:00,52.4,34.0,30.38,SSE,156,5.0,8.0,50,0.00,,,0.00,weatherlink.com 1.10,2013-04-27 19:11:00,
2013-04-27 15:26:00,53.6,33.0,30.37,West,280,1.0,7.0,46,0.00,,,0.00,weatherlink.com 1.10,2013-04-27 19:26:00,
2013-04-27 15:41:00,54.0,33.0,30.36,SW,234,6.0,8.0,46,0.00,,,0.00,weatherlink.com 1.10,2013-04-27 19:41:00,
2013-04-27 15:56:00,54.5,35.0,30.36,East,82,1.0,7.0,48,0.00,,,0.00,weatherlink.com 1.10,2013-04-27 19:56:00,
2013-04-27 16:11:00,55.0,35.0,30.35,SE,133,0.0,6.0,47,0.00,,,0.00,weatherlink.com 1.10,2013-04-27 20:11:00,
2013-04-27 16:26:00,54.7,35.0,30.35,SSW,209,1.0,7.0,47,0.00,,,0.00,weatherlink.com 1.10,2013-04-27 20:26:00,
2013-04-27 16:41:00,50.6,37.0,30.35,West,260,7.0,10.0,61,0.00,,,0.00,weatherlink.com 1.10,2013-04-27 20:41:00,
2013-04-27 16:56:00,50.3,36.0,30.35,West,271,5.0,9.0,59,0.00,,,0.00,weatherlink.com 1.10,2013-04-27 20:56:00,
2013-04-27 17:11:00,51.1,37.0,30.34,West,268,5.0,10.0,58,0.00,,,0.00,weatherlink.com 1.10,2013-04-27 21:11:00,
2013-04-27 17:26:00,50.9,37.0,30.34,West,268,5.0,9.0,60,0.00,,,0.00,weatherlink.com 1.10,2013-04-27 21:26:00,
2013-04-27 17:41:00,50.4,38.0,30.34,West,267,6.0,9.0,62,0.00,,,0.00,weatherlink.com 1.10,2013-04-27 21:41:00,
2013-04-27 17:56:00,49.5,38.0,30.34,West,260,5.0,10.0,64,0.00,,,0.00,weatherlink.com 1.10,2013-04-27 21:56:00,
2013-04-27 18:11:00,49.8,38.0,30.34,West,268,4.0,8.0,64,0.00,,,0.00,weatherlink.com 1.10,2013-04-27 22:11:00,
2013-04-27 18:26:00,48.9,37.0,30.34,SW,233,3.0,8.0,64,0.00,,,0.00,weatherlink.com 1.10,2013-04-27 22:26:00,
2013-04-27 18:41:00,48.1,38.0,30.34,WSW,252,3.0,8.0,68,0.00,,,0.00,weatherlink.com 1.10,2013-04-27 22:41:00,
2013-04-27 18:56:00,46.8,40.0,30.34,West,263,3.0,9.0,76,0.00,,,0.00,weatherlink.com 1.10,2013-04-27 22:56:00,
2013-04-27 19:11:00,46.0,40.0,30.34,WSW,253,6.0,7.0,78,0.00,,,0.00,weatherlink.com 1.10,2013-04-27 23:11:00,
2013-04-27 19:26:00,45.4,40.0,30.34,SE,145,1.0,5.0,80,0.00,,,0.00,weatherlink.com 1.10,2013-04-27 23:26:00,
2013-04-27 19:41:00,44.6,39.0,30.34,SSE,150,0.0,5.0,82,0.00,,,0.00,weatherlink.com 1.10,2013-04-27 23:41:00,
2013-04-27 19:56:00,44.0,40.0,30.34,SW,225,0.0,6.0,84,0.00,,,0.00,weatherlink.com 1.10,2013-04-27 23:56:00,
2013-04-27 20:11:00,43.4,39.0,30.34,SW,214,0.0,2.0,85,0.00,,,0.00,weatherlink.com 1.10,2013-04-28 00:11:00,
2013-04-27 20:27:00,43.1,40.0,30.34,WSW,242,0.0,2.0,87,0.00,,,0.00,weatherlink.com 1.10,2013-04-28 00:27:00,
2013-04-27 20:42:00,42.8,39.0,30.35,SW,219,0.0,1.0,87,0.00,,,0.00,weatherlink.com 1.10,2013-04-28 00:42:00,
2013-04-27 20:57:00,42.3,39.0,30.35,SW,232,0.0,1.0,89,0.00,,,0.00,weatherlink.com 1.10,2013-04-28 00:57:00,
2013-04-27 21:12:00,42.1,39.0,30.35,West,261,0.0,0.0,90,0.00,,,0.00,weatherlink.com 1.10,2013-04-28 01:12:00,
2013-04-27 21:27:00,41.7,39.0,30.35,SW,214,0.0,0.0,90,0.00,,,0.00,weatherlink.com 1.10,2013-04-28 01:27:00,
2013-04-27 21:42:00,41.3,39.0,30.35,West,271,0.0,0.0,91,0.00,,,0.00,weatherlink.com 1.10,2013-04-28 01:42:00,
2013-04-27 21:57:00,41.4,39.0,30.35,West,265,0.0,0.0,92,0.00,,,0.00,weatherlink.com 1.10,2013-04-28 01:57:00,
2013-04-27 22:12:00,41.8,39.0,30.36,West,280,0.0,2.0,91,0.00,,,0.00,weatherlink.com 1.10,2013-04-28 02:12:00,
2013-04-27 22:27:00,41.1,39.0,30.36,West,278,0.0,0.0,91,0.00,,,0.00,weatherlink.com 1.10,2013-04-28 02:27:00,
2013-04-27 22:42:00,41.0,39.0,30.36,WNW,291,0.0,0.0,92,0.00,,,0.00,weatherlink.com 1.10,2013-04-28 02:42:00,
2013-04-27 22:57:00,40.8,39.0,30.36,NNW,339,0.0,1.0,93,0.00,,,0.00,weatherlink.com 1.10,2013-04-28 02:57:00,
2013-04-27 23:12:00,40.0,38.0,30.36,NNW,339,0.0,0.0,92,0.00,,,0.00,weatherlink.com 1.10,2013-04-28 03:12:00,
2013-04-27 23:27:00,39.6,38.0,30.36,NNW,339,0.0,0.0,93,0.00,,,0.00,weatherlink.com 1.10,2013-04-28 03:27:00,
2013-04-27 23:42:00,39.1,38.0,30.36,NNW,339,0.0,0.0,94,0.00,,,0.00,weatherlink.com 1.10,2013-04-28 03:42:00,
2013-04-27 23:57:00,39.1,37.0,30.36,NNW,338,0.0,0.0,93,0.00,,,0.00,weatherlink.com 1.10,2013-04-28 03:57:00,